Starlink 11325

operational
NORAD ID: 61538 Int'l Des: 2024-184 Owner: SPXS Country: US Constellation: starlink
LEOCIRCULAR

Starlink 11325について

説明を読み込み中...

リアルタイム位置

3D地球を読み込み中...

次回通過

高度履歴

Altitude vs Time

uPlot chart will show altitude changes over time

軌道要素

1 61538U 24184G 26035.98192788 .00000776 00000-0 11270-4 0 9995
2 61538 53.1587 37.2485 0001378 88.2732 271.8444 15.69703320 75280
Epoch: Feb 4, 2026 • Age: 14 hours

現在のステータス

高度 360.0 km
速度 7.70 km/s
衛星直下点 21.99°N, 148.41°W
打ち上げ日 Oct 15, 2024
運用期間 1.3 years
タイプ internet

技術仕様

分類 Payload
質量 960.00 kg
乾燥質量 910.00 kg
総質量 960.00 kg
長さ 0.30 m
直径 4.10 m
スパン 29.00 m
形状 Box + pan
製造者 SPXS
バスタイプ Starlink V2MD
フェーズステータス In Orbit
所有者/国 SPXS/US

大規模コンステレーション

Loading constellations...